Zurück zum Katalog

COSMOS 2251 DEB

AktivLEO
NORAD 35614·DEBRIS·🇷🇺 Russia

Gestartet Jun 16, 1993 von Plesetsk Cosmodrome

Loading…

Nächste Überflüge (nächste 24 Stunden)

TLE

AktuellSource: Space-Track

Epoche: Sep 14, 2026, 09:23 UTC

1 35614U 93036ANH 26257.39118004  .00002544  00000-0  41875-3 0  9991
2 35614  73.9583 151.8525 0073466 298.4477  60.9304 14.69351457917756

Verfolge COSMOS 2251 DEB in Echtzeit mit AllMySat

Download on the App Store